Time,TemperatureF,DewpointF,PressureIn,WindDirection,WindDirectionDegrees,WindSpeedMPH,WindSpeedGustMPH,Humidity,HourlyPrecipIn,Conditions,Clouds,dailyrainin,SoftwareType,DateUTC
2013-03-06 00:00:00,28.5,23.4,30.34,NNE,23,0.0,1.1,81,0.00,,,0.00,WUHU216HW,2013-03-06 05:00:00,
2013-03-06 00:05:00,28.7,23.6,30.34,NNE,23,0.0,0.0,81,0.00,,,0.00,WUHU216HW,2013-03-06 05:05:00,
2013-03-06 00:10:00,28.7,23.6,30.34,North,0,0.0,0.0,81,0.00,,,0.00,WUHU216HW,2013-03-06 05:10:00,
2013-03-06 00:15:00,28.9,23.8,30.34,NNE,23,0.0,0.0,81,0.00,,,0.00,WUHU216HW,2013-03-06 05:15:00,
2013-03-06 00:20:00,28.9,23.8,30.34,NNE,23,0.0,0.0,81,0.00,,,0.00,WUHU216HW,2013-03-06 05:20:00,
2013-03-06 00:25:00,28.9,23.8,30.34,NNE,23,0.0,0.0,81,0.00,,,0.00,WUHU216HW,2013-03-06 05:25:00,
2013-03-06 00:30:00,29.1,24.0,30.34,NNE,23,0.0,0.0,81,0.00,,,0.00,WUHU216HW,2013-03-06 05:30:00,
2013-03-06 00:35:00,29.1,24.0,30.34,NNE,23,0.0,0.0,81,0.00,,,0.00,WUHU216HW,2013-03-06 05:35:00,
2013-03-06 00:40:00,29.1,24.0,30.34,NNE,23,0.0,0.0,81,0.00,,,0.00,WUHU216HW,2013-03-06 05:40:00,
2013-03-06 00:45:00,29.1,24.0,30.34,NNE,23,0.0,0.0,81,0.00,,,0.00,WUHU216HW,2013-03-06 05:45:00,
2013-03-06 00:50:00,29.1,24.0,30.34,NNE,23,0.0,1.7,81,0.00,,,0.00,WUHU216HW,2013-03-06 05:50:00,
2013-03-06 00:55:00,29.1,24.0,30.35,NNE,23,0.0,1.7,81,0.00,,,0.00,WUHU216HW,2013-03-06 05:55:00,
2013-03-06 01:00:00,29.3,24.1,30.34,NNE,23,0.0,1.3,81,0.00,,,0.00,WUHU216HW,2013-03-06 06:00:00,
2013-03-06 01:05:00,29.3,24.1,30.35,North,0,0.0,1.3,81,0.00,,,0.00,WUHU216HW,2013-03-06 06:05:00,
2013-03-06 01:10:00,29.3,23.9,30.34,North,0,0.0,1.3,80,0.00,,,0.00,WUHU216HW,2013-03-06 06:10:00,
2013-03-06 01:15:00,29.4,24.0,30.34,North,0,0.0,0.0,80,0.00,,,0.00,WUHU216HW,2013-03-06 06:15:00,
2013-03-06 01:20:00,29.4,24.0,30.34,North,0,0.0,0.0,80,0.00,,,0.00,WUHU216HW,2013-03-06 06:20:00,
2013-03-06 01:25:00,29.4,24.0,30.34,North,0,0.0,0.0,80,0.00,,,0.00,WUHU216HW,2013-03-06 06:25:00,
2013-03-06 01:30:00,29.6,24.2,30.34,North,0,0.0,0.0,80,0.00,,,0.00,WUHU216HW,2013-03-06 06:30:00,
2013-03-06 01:35:00,29.6,24.2,30.34,North,0,0.0,0.0,80,0.00,,,0.00,WUHU216HW,2013-03-06 06:35:00,
2013-03-06 01:40:00,29.8,24.4,30.34,NNE,23,0.0,0.0,80,0.00,,,0.00,WUHU216HW,2013-03-06 06:40:00,
2013-03-06 01:45:00,30.0,24.6,30.35,NNE,23,0.0,0.0,80,0.00,,,0.00,WUHU216HW,2013-03-06 06:45:00,
2013-03-06 01:50:00,30.0,24.6,30.35,NNE,23,3.3,4.2,80,0.00,,,0.00,WUHU216HW,2013-03-06 06:50:00,
2013-03-06 01:55:00,30.0,24.2,30.35,NNE,23,0.0,4.2,79,0.00,,,0.00,WUHU216HW,2013-03-06 06:55:00,
2013-03-06 02:00:00,30.0,24.2,30.35,North,0,0.0,0.0,79,0.00,,,0.00,WUHU216HW,2013-03-06 07:00:00,
2013-03-06 02:05:00,30.2,24.4,30.35,North,0,0.0,0.0,79,0.00,,,0.00,WUHU216HW,2013-03-06 07:05:00,
2013-03-06 02:10:00,30.3,24.6,30.35,North,0,0.8,0.8,79,0.00,,,0.00,WUHU216HW,2013-03-06 07:10:00,
2013-03-06 02:15:00,30.3,24.6,30.35,NNE,23,0.0,0.8,79,0.00,,,0.00,WUHU216HW,2013-03-06 07:15:00,
2013-03-06 02:20:00,30.3,24.6,30.35,NNE,23,0.0,0.8,79,0.00,,,0.00,WUHU216HW,2013-03-06 07:20:00,
2013-03-06 02:25:00,30.5,24.8,30.35,North,0,0.0,0.0,79,0.00,,,0.00,WUHU216HW,2013-03-06 07:25:00,
2013-03-06 02:30:00,30.5,24.8,30.35,North,0,0.0,0.0,79,0.00,,,0.00,WUHU216HW,2013-03-06 07:30:00,
2013-03-06 02:35:00,30.7,25.0,30.35,North,0,0.0,0.0,79,0.00,,,0.00,WUHU216HW,2013-03-06 07:35:00,
2013-03-06 02:40:00,30.7,25.0,30.35,North,0,0.0,0.0,79,0.00,,,0.00,WUHU216HW,2013-03-06 07:40:00,
2013-03-06 02:45:00,30.7,24.6,30.35,North,0,0.0,0.0,78,0.00,,,0.00,WUHU216HW,2013-03-06 07:45:00,
2013-03-06 02:50:00,30.9,24.8,30.36,North,0,0.0,0.0,78,0.00,,,0.00,WUHU216HW,2013-03-06 07:50:00,
2013-03-06 02:55:00,30.9,24.8,30.36,NNE,23,0.0,0.0,78,0.00,,,0.00,WUHU216HW,2013-03-06 07:55:00,
2013-03-06 03:00:00,30.9,24.8,30.36,North,0,0.0,0.0,78,0.00,,,0.00,WUHU216HW,2013-03-06 08:00:00,
2013-03-06 03:05:00,30.9,24.8,30.36,North,0,0.0,0.0,78,0.00,,,0.00,WUHU216HW,2013-03-06 08:05:00,
2013-03-06 03:10:00,30.9,24.8,30.36,NE,45,0.0,0.0,78,0.00,,,0.00,WUHU216HW,2013-03-06 08:10:00,
2013-03-06 03:15:00,31.1,25.0,30.36,NNE,23,0.0,0.0,78,0.00,,,0.00,WUHU216HW,2013-03-06 08:15:00,
2013-03-06 03:20:00,31.1,25.0,30.36,NNE,23,0.0,0.0,78,0.00,,,0.00,WUHU216HW,2013-03-06 08:20:00,
2013-03-06 03:25:00,31.2,25.2,30.36,ENE,68,3.8,3.8,78,0.00,,,0.00,WUHU216HW,2013-03-06 08:25:00,
2013-03-06 03:30:00,31.2,25.2,30.37,NNE,23,0.0,3.8,78,0.00,,,0.00,WUHU216HW,2013-03-06 08:30:00,
2013-03-06 03:35:00,31.2,25.2,30.36,NE,45,0.0,3.8,78,0.00,,,0.00,WUHU216HW,2013-03-06 08:35:00,
2013-03-06 03:40:00,31.4,25.4,30.37,NNE,23,0.0,0.0,78,0.00,,,0.00,WUHU216HW,2013-03-06 08:40:00,
2013-03-06 03:45:00,31.4,25.4,30.37,NNW,338,5.5,5.5,78,0.00,,,0.00,WUHU216HW,2013-03-06 08:45:00,
2013-03-06 03:50:00,31.4,25.0,30.37,NNE,23,0.0,5.5,77,0.00,,,0.00,WUHU216HW,2013-03-06 08:50:00,
2013-03-06 03:55:00,31.6,25.2,30.37,NNE,23,0.0,4.0,77,0.00,,,0.00,WUHU216HW,2013-03-06 08:55:00,
2013-03-06 04:00:00,31.6,25.2,30.37,NNE,23,2.4,4.0,77,0.00,,,0.00,WUHU216HW,2013-03-06 09:00:00,
2013-03-06 04:05:00,31.6,25.2,30.37,North,0,0.0,7.1,77,0.00,,,0.00,WUHU216HW,2013-03-06 09:05:00,
2013-03-06 04:10:00,31.6,25.2,30.37,NNE,23,0.0,7.1,77,0.00,,,0.00,WUHU216HW,2013-03-06 09:10:00,
2013-03-06 04:15:00,31.6,25.2,30.37,NE,45,0.0,0.0,77,0.00,,,0.00,WUHU216HW,2013-03-06 09:15:00,
2013-03-06 04:20:00,31.6,25.2,30.38,NNE,23,0.0,2.0,77,0.00,,,0.00,WUHU216HW,2013-03-06 09:20:00,
2013-03-06 04:25:00,31.6,25.2,30.38,North,0,6.0,6.0,77,0.00,,,0.00,WUHU216HW,2013-03-06 09:25:00,
2013-03-06 04:30:00,31.6,25.2,30.38,NNE,23,0.0,6.0,77,0.00,,,0.00,WUHU216HW,2013-03-06 09:30:00,
2013-03-06 04:35:00,31.6,25.2,30.38,NNE,23,5.8,6.0,77,0.00,,,0.00,WUHU216HW,2013-03-06 09:35:00,
2013-03-06 04:40:00,31.6,25.2,30.38,NE,45,0.0,5.8,77,0.00,,,0.00,WUHU216HW,2013-03-06 09:40:00,
2013-03-06 04:45:00,31.4,25.0,30.38,NNE,23,0.0,5.8,77,0.00,,,0.00,WUHU216HW,2013-03-06 09:45:00,
2013-03-06 04:50:00,31.2,24.9,30.39,NE,45,0.0,0.0,77,0.00,,,0.00,WUHU216HW,2013-03-06 09:50:00,
2013-03-06 04:55:00,31.2,24.9,30.39,NNE,23,0.0,0.0,77,0.00,,,0.00,WUHU216HW,2013-03-06 09:55:00,
2013-03-06 05:00:00,31.1,24.7,30.39,NNE,23,0.0,0.0,77,0.00,,,0.00,WUHU216HW,2013-03-06 10:00:00,
2013-03-06 05:05:00,30.9,25.0,30.39,NNE,23,0.0,0.0,78,0.00,,,0.00,WUHU216HW,2013-03-06 10:05:00,
2013-03-06 05:10:00,30.9,24.8,30.39,NNE,23,0.0,0.0,78,0.00,,,0.00,WUHU216HW,2013-03-06 10:10:00,
2013-03-06 05:15:00,30.9,24.8,30.39,NNE,23,0.0,0.0,78,0.00,,,0.00,WUHU216HW,2013-03-06 10:15:00,
2013-03-06 05:20:00,30.7,24.6,30.39,NNE,23,0.0,0.0,78,0.00,,,0.00,WUHU216HW,2013-03-06 10:20:00,
2013-03-06 05:25:00,30.7,24.6,30.40,NNE,23,0.0,0.0,78,0.00,,,0.00,WUHU216HW,2013-03-06 10:25:00,
2013-03-06 05:30:00,30.5,24.5,30.40,NNE,23,0.0,0.0,78,0.00,,,0.00,WUHU216HW,2013-03-06 10:30:00,
2013-03-06 05:35:00,30.3,24.3,30.40,NNE,23,0.0,0.0,78,0.00,,,0.00,WUHU216HW,2013-03-06 10:35:00,
2013-03-06 05:40:00,30.2,24.1,30.40,NNE,23,0.0,0.0,78,0.00,,,0.00,WUHU216HW,2013-03-06 10:40:00,
2013-03-06 05:45:00,30.2,24.1,30.40,NNE,23,0.0,0.0,78,0.00,,,0.00,WUHU216HW,2013-03-06 10:45:00,
2013-03-06 05:50:00,30.0,23.9,30.40,NNE,23,0.0,0.0,78,0.00,,,0.00,WUHU216HW,2013-03-06 10:50:00,
2013-03-06 05:55:00,30.0,24.2,30.41,NNE,23,0.0,0.0,79,0.00,,,0.00,WUHU216HW,2013-03-06 10:55:00,
2013-03-06 06:00:00,30.0,24.2,30.41,NNE,23,0.0,0.0,79,0.00,,,0.00,WUHU216HW,2013-03-06 11:00:00,
2013-03-06 06:05:00,29.8,24.1,30.41,NNE,23,0.0,0.0,79,0.00,,,0.00,WUHU216HW,2013-03-06 11:05:00,
2013-03-06 06:10:00,29.8,24.1,30.41,NNE,23,0.0,0.0,79,0.00,,,0.00,WUHU216HW,2013-03-06 11:10:00,
2013-03-06 06:15:00,29.8,24.1,30.42,NNE,23,0.0,0.0,79,0.00,,,0.00,WUHU216HW,2013-03-06 11:15:00,
2013-03-06 06:20:00,29.8,24.1,30.42,NNE,23,0.0,0.0,79,0.00,,,0.00,WUHU216HW,2013-03-06 11:20:00,
2013-03-06 06:25:00,29.6,23.9,30.43,NNE,23,0.0,0.0,79,0.00,,,0.00,WUHU216HW,2013-03-06 11:25:00,
2013-03-06 06:30:00,29.4,24.0,30.43,NNE,23,0.0,0.0,80,0.00,,,0.00,WUHU216HW,2013-03-06 11:30:00,
2013-03-06 06:35:00,29.4,24.0,30.43,NNE,23,0.0,0.0,80,0.00,,,0.00,WUHU216HW,2013-03-06 11:35:00,
2013-03-06 06:40:00,29.4,24.0,30.43,NNE,23,0.0,0.0,80,0.00,,,0.00,WUHU216HW,2013-03-06 11:40:00,
2013-03-06 06:45:00,29.3,23.9,30.44,NNE,23,0.0,0.0,80,0.00,,,0.00,WUHU216HW,2013-03-06 11:45:00,
2013-03-06 06:50:00,29.1,23.9,30.44,NNE,23,0.0,0.0,80,0.00,,,0.00,WUHU216HW,2013-03-06 11:50:00,
2013-03-06 06:55:00,29.1,23.7,30.44,NNE,23,0.0,0.0,80,0.00,,,0.00,WUHU216HW,2013-03-06 11:55:00,
2013-03-06 07:00:00,29.1,23.7,30.45,NNE,23,0.0,0.0,80,0.00,,,0.00,WUHU216HW,2013-03-06 12:00:00,
2013-03-06 07:05:00,29.1,23.7,30.45,NNE,23,0.0,0.0,80,0.00,,,0.00,WUHU216HW,2013-03-06 12:05:00,
2013-03-06 07:10:00,29.1,23.7,30.45,NNE,23,0.0,0.0,80,0.00,,,0.00,WUHU216HW,2013-03-06 12:10:00,
2013-03-06 07:15:00,29.1,23.7,30.45,NNE,23,0.0,0.0,80,0.00,,,0.00,WUHU216HW,2013-03-06 12:15:00,
2013-03-06 07:20:00,29.3,24.0,30.46,NNE,23,0.0,0.0,81,0.00,,,0.00,WUHU216HW,2013-03-06 12:20:00,
2013-03-06 07:25:00,29.4,24.3,30.46,NNE,23,0.0,0.0,81,0.00,,,0.00,WUHU216HW,2013-03-06 12:25:00,
2013-03-06 07:30:00,29.4,24.3,30.46,NNE,23,0.0,0.0,81,0.00,,,0.00,WUHU216HW,2013-03-06 12:30:00,
2013-03-06 07:35:00,29.4,24.5,30.46,NNE,23,0.0,0.0,81,0.00,,,0.00,WUHU216HW,2013-03-06 12:35:00,
2013-03-06 07:40:00,29.6,24.5,30.47,NNE,23,0.0,0.0,81,0.00,,,0.00,WUHU216HW,2013-03-06 12:40:00,
2013-03-06 07:45:00,29.8,24.7,30.47,NNE,23,0.0,0.0,81,0.00,,,0.00,WUHU216HW,2013-03-06 12:45:00,
2013-03-06 07:50:00,30.0,24.9,30.47,NNE,23,0.0,0.0,81,0.00,,,0.00,WUHU216HW,2013-03-06 12:50:00,
2013-03-06 07:55:00,30.0,24.9,30.48,NNE,23,0.0,0.0,81,0.00,,,0.00,WUHU216HW,2013-03-06 12:55:00,
2013-03-06 08:00:00,30.2,25.0,30.48,NNE,23,0.0,0.0,81,0.00,,,0.00,WUHU216HW,2013-03-06 13:00:00,
2013-03-06 08:05:00,30.5,25.4,30.49,North,0,0.0,0.0,81,0.00,,,0.00,WUHU216HW,2013-03-06 13:05:00,
2013-03-06 08:10:00,30.7,25.6,30.49,North,0,0.0,0.0,81,0.00,,,0.00,WUHU216HW,2013-03-06 13:10:00,
2013-03-06 08:15:00,30.7,25.6,30.49,North,0,0.0,0.0,81,0.00,,,0.00,WUHU216HW,2013-03-06 13:15:00,
2013-03-06 08:20:00,31.1,25.9,30.49,North,0,0.0,0.0,81,0.00,,,0.00,WUHU216HW,2013-03-06 13:20:00,
2013-03-06 08:25:00,31.1,25.9,30.49,North,0,0.0,0.0,81,0.00,,,0.00,WUHU216HW,2013-03-06 13:25:00,
2013-03-06 08:30:00,31.2,26.1,30.49,North,0,0.0,0.0,81,0.00,,,0.00,WUHU216HW,2013-03-06 13:30:00,
2013-03-06 08:35:00,31.4,26.3,30.49,North,0,0.0,0.0,81,0.00,,,0.00,WUHU216HW,2013-03-06 13:35:00,
2013-03-06 08:40:00,31.8,26.7,30.49,North,0,0.0,0.0,81,0.00,,,0.00,WUHU216HW,2013-03-06 13:40:00,
2013-03-06 08:45:00,31.8,26.7,30.50,North,0,0.0,3.8,81,0.00,,,0.00,WUHU216HW,2013-03-06 13:45:00,
2013-03-06 08:50:00,32.1,27.0,30.50,North,0,0.0,3.8,81,0.00,,,0.00,WUHU216HW,2013-03-06 13:50:00,
2013-03-06 08:55:00,32.1,26.7,30.50,North,0,2.2,2.2,80,0.00,,,0.00,WUHU216HW,2013-03-06 13:55:00,
2013-03-06 09:00:00,32.3,26.9,30.50,North,0,0.0,2.2,80,0.00,,,0.00,WUHU216HW,2013-03-06 14:00:00,
2013-03-06 09:05:00,32.5,27.0,30.50,North,0,0.0,2.2,80,0.00,,,0.00,WUHU216HW,2013-03-06 14:05:00,
2013-03-06 09:10:00,32.7,27.2,30.50,NNE,23,1.3,1.3,80,0.00,,,0.00,WUHU216HW,2013-03-06 14:10:00,
2013-03-06 09:15:00,32.9,27.0,30.50,NNE,23,0.0,1.3,79,0.00,,,0.00,WUHU216HW,2013-03-06 14:15:00,
2013-03-06 09:20:00,33.4,27.4,30.50,NNE,23,0.0,1.3,79,0.00,,,0.00,WUHU216HW,2013-03-06 14:20:00,
2013-03-06 09:25:00,33.4,27.5,30.50,NNE,23,0.0,3.3,79,0.00,,,0.00,WUHU216HW,2013-03-06 14:25:00,
2013-03-06 09:30:00,33.6,27.7,30.50,NNE,23,0.0,3.3,79,0.00,,,0.00,WUHU216HW,2013-03-06 14:30:00,
2013-03-06 09:35:00,33.8,27.8,30.51,North,0,0.0,0.0,79,0.00,,,0.00,WUHU216HW,2013-03-06 14:35:00,
2013-03-06 09:40:00,33.9,27.7,30.50,NNE,23,0.0,0.0,78,0.00,,,0.00,WUHU216HW,2013-03-06 14:40:00,
2013-03-06 09:45:00,34.1,27.9,30.51,NE,45,0.0,0.0,78,0.00,,,0.00,WUHU216HW,2013-03-06 14:45:00,
2013-03-06 09:50:00,34.3,28.1,30.50,ENE,68,0.0,0.0,78,0.00,,,0.00,WUHU216HW,2013-03-06 14:50:00,
2013-03-06 09:55:00,34.3,28.1,30.50,ENE,68,0.0,0.0,78,0.00,,,0.00,WUHU216HW,2013-03-06 14:55:00,
2013-03-06 10:00:00,34.3,27.7,30.51,NNE,23,0.0,0.0,77,0.00,,,0.00,WUHU216HW,2013-03-06 15:00:00,
2013-03-06 10:05:00,34.7,28.1,30.51,NE,45,0.0,0.0,77,0.00,,,0.00,WUHU216HW,2013-03-06 15:05:00,
2013-03-06 10:10:00,34.8,28.3,30.50,ENE,68,0.0,0.0,77,0.00,,,0.00,WUHU216HW,2013-03-06 15:10:00,
2013-03-06 10:15:00,34.8,28.3,30.51,ENE,68,0.0,0.0,77,0.00,,,0.00,WUHU216HW,2013-03-06 15:15:00,
2013-03-06 10:20:00,35.2,28.6,30.50,NE,45,0.0,0.0,77,0.00,,,0.00,WUHU216HW,2013-03-06 15:20:00,
2013-03-06 10:25:00,35.4,28.5,30.50,NNE,23,0.0,0.0,76,0.00,,,0.00,WUHU216HW,2013-03-06 15:25:00,
2013-03-06 10:30:00,35.4,28.5,30.50,NE,45,0.0,1.3,76,0.00,,,0.00,WUHU216HW,2013-03-06 15:30:00,
2013-03-06 10:35:00,35.7,28.2,30.50,NNE,23,0.0,4.4,76,0.00,,,0.00,WUHU216HW,2013-03-06 15:35:00,
2013-03-06 10:40:00,35.9,28.7,30.50,ENE,68,2.0,4.4,75,0.00,,,0.00,WUHU216HW,2013-03-06 15:40:00,
2013-03-06 10:45:00,36.1,28.6,30.50,ENE,68,0.0,2.0,74,0.00,,,0.00,WUHU216HW,2013-03-06 15:45:00,
2013-03-06 10:50:00,36.3,28.7,30.50,ENE,68,0.0,3.5,74,0.00,,,0.00,WUHU216HW,2013-03-06 15:50:00,
2013-03-06 10:55:00,36.3,28.7,30.50,ENE,68,0.0,3.5,74,0.00,,,0.00,WUHU216HW,2013-03-06 15:55:00,
2013-03-06 11:00:00,36.3,28.7,30.50,East,90,1.3,1.3,74,0.00,,,0.00,WUHU216HW,2013-03-06 16:00:00,
2013-03-06 11:05:00,36.3,28.4,30.50,ENE,68,0.0,1.3,73,0.00,,,0.00,WUHU216HW,2013-03-06 16:05:00,
2013-03-06 11:10:00,36.5,28.6,30.51,ENE,68,0.0,0.0,73,0.00,,,0.00,WUHU216HW,2013-03-06 16:10:00,
2013-03-06 11:15:00,36.5,28.6,30.51,NNE,23,2.9,2.9,73,0.00,,,0.00,WUHU216HW,2013-03-06 16:15:00,
2013-03-06 11:20:00,36.5,28.6,30.52,North,0,0.0,2.9,73,0.00,,,0.00,WUHU216HW,2013-03-06 16:20:00,
2013-03-06 11:25:00,36.6,28.8,30.52,ENE,68,0.0,0.0,73,0.00,,,0.00,WUHU216HW,2013-03-06 16:25:00,
2013-03-06 11:30:00,36.8,28.6,30.53,NNE,23,0.0,0.0,72,0.00,,,0.00,WUHU216HW,2013-03-06 16:30:00,
2013-03-06 11:35:00,37.2,29.1,30.53,NNE,23,0.0,0.0,73,0.00,,,0.00,WUHU216HW,2013-03-06 16:35:00,
2013-03-06 11:40:00,37.2,29.0,30.53,NNE,23,0.0,0.0,72,0.00,,,0.00,WUHU216HW,2013-03-06 16:40:00,
2013-03-06 11:45:00,37.2,28.7,30.53,NNE,23,0.6,0.6,71,0.00,,,0.00,WUHU216HW,2013-03-06 16:45:00,
2013-03-06 11:50:00,37.2,29.0,30.53,NE,45,0.0,0.6,72,0.00,,,0.00,WUHU216HW,2013-03-06 16:50:00,
2013-03-06 11:55:00,37.2,29.0,30.53,ENE,68,0.0,0.0,72,0.00,,,0.00,WUHU216HW,2013-03-06 16:55:00,
2013-03-06 12:00:00,37.4,28.9,30.53,ENE,68,0.0,0.0,71,0.00,,,0.00,WUHU216HW,2013-03-06 17:00:00,
2013-03-06 12:05:00,37.5,29.0,30.53,NNE,23,0.0,0.4,71,0.00,,,0.00,WUHU216HW,2013-03-06 17:05:00,
2013-03-06 12:10:00,37.9,29.3,30.53,North,0,3.1,3.1,71,0.00,,,0.00,WUHU216HW,2013-03-06 17:10:00,
2013-03-06 12:15:00,38.3,29.7,30.53,ENE,68,0.0,3.1,71,0.00,,,0.00,WUHU216HW,2013-03-06 17:15:00,
2013-03-06 12:20:00,38.4,29.5,30.53,ENE,68,0.0,3.1,71,0.00,,,0.00,WUHU216HW,2013-03-06 17:20:00,
2013-03-06 12:25:00,38.4,29.5,30.53,ENE,68,0.0,0.0,70,0.00,,,0.00,WUHU216HW,2013-03-06 17:25:00,
2013-03-06 12:30:00,38.8,30.2,30.53,ENE,68,0.0,0.0,71,0.00,,,0.00,WUHU216HW,2013-03-06 17:30:00,
2013-03-06 12:35:00,39.2,29.8,30.53,NE,45,0.0,0.0,69,0.00,,,0.00,WUHU216HW,2013-03-06 17:35:00,
2013-03-06 12:40:00,39.5,30.1,30.53,NNE,23,0.0,0.0,69,0.00,,,0.00,WUHU216HW,2013-03-06 17:40:00,
2013-03-06 12:45:00,39.9,30.5,30.53,NNE,23,0.0,0.0,69,0.00,,,0.00,WUHU216HW,2013-03-06 17:45:00,
2013-03-06 12:50:00,40.8,31.0,30.53,NNE,23,0.0,0.0,68,0.00,,,0.00,WUHU216HW,2013-03-06 17:50:00,
2013-03-06 12:55:00,41.3,31.2,30.53,NNE,23,0.0,0.0,67,0.00,,,0.00,WUHU216HW,2013-03-06 17:55:00,
2013-03-06 13:00:00,41.3,30.8,30.52,North,0,0.0,0.0,66,0.00,,,0.00,WUHU216HW,2013-03-06 18:00:00,
2013-03-06 13:05:00,40.8,30.3,30.53,NNE,23,0.0,0.0,66,0.00,,,0.00,WUHU216HW,2013-03-06 18:05:00,
2013-03-06 13:10:00,40.6,30.1,30.53,North,0,0.0,0.0,66,0.00,,,0.00,WUHU216HW,2013-03-06 18:10:00,
2013-03-06 13:15:00,40.1,29.5,30.53,North,0,0.0,0.0,66,0.00,,,0.00,WUHU216HW,2013-03-06 18:15:00,
2013-03-06 13:20:00,39.9,29.7,30.52,NNE,23,0.0,0.0,67,0.00,,,0.00,WUHU216HW,2013-03-06 18:20:00,
2013-03-06 13:25:00,39.7,29.6,30.52,NNE,23,0.0,0.0,67,0.00,,,0.00,WUHU216HW,2013-03-06 18:25:00,
2013-03-06 13:30:00,39.7,29.2,30.52,North,0,0.0,0.0,66,0.00,,,0.00,WUHU216HW,2013-03-06 18:30:00,
2013-03-06 13:35:00,39.5,28.6,30.52,North,0,0.0,0.0,65,0.00,,,0.00,WUHU216HW,2013-03-06 18:35:00,
2013-03-06 13:40:00,39.5,29.0,30.52,North,0,0.0,0.0,66,0.00,,,0.00,WUHU216HW,2013-03-06 18:40:00,
2013-03-06 13:45:00,39.7,29.2,30.52,ENE,68,0.0,0.0,66,0.00,,,0.00,WUHU216HW,2013-03-06 18:45:00,
2013-03-06 13:50:00,39.9,29.4,30.52,NE,45,0.0,0.0,66,0.00,,,0.00,WUHU216HW,2013-03-06 18:50:00,
2013-03-06 13:55:00,39.9,29.4,30.52,NE,45,0.0,0.0,66,0.00,,,0.00,WUHU216HW,2013-03-06 18:55:00,
2013-03-06 14:00:00,39.9,29.4,30.52,NNE,23,0.8,0.8,66,0.00,,,0.00,WUHU216HW,2013-03-06 19:00:00,
2013-03-06 14:05:00,39.7,28.8,30.52,NNE,23,2.0,2.0,65,0.00,,,0.00,WUHU216HW,2013-03-06 19:05:00,
2013-03-06 14:10:00,39.9,29.0,30.51,NNE,23,0.0,2.0,65,0.00,,,0.00,WUHU216HW,2013-03-06 19:10:00,
2013-03-06 14:15:00,39.9,29.0,30.52,NNE,23,0.0,2.0,65,0.00,,,0.00,WUHU216HW,2013-03-06 19:15:00,
2013-03-06 14:20:00,39.9,29.2,30.51,NNE,23,0.0,2.6,65,0.00,,,0.00,WUHU216HW,2013-03-06 19:20:00,
2013-03-06 14:25:00,40.2,29.3,30.51,NNE,23,0.0,2.6,65,0.00,,,0.00,WUHU216HW,2013-03-06 19:25:00,
2013-03-06 14:30:00,40.1,28.8,30.51,NNE,23,0.0,0.0,64,0.00,,,0.00,WUHU216HW,2013-03-06 19:30:00,
2013-03-06 14:35:00,39.9,29.0,30.51,NE,45,0.0,0.0,65,0.00,,,0.00,WUHU216HW,2013-03-06 19:35:00,
2013-03-06 14:40:00,39.9,29.0,30.51,NE,45,0.0,0.0,65,0.00,,,0.00,WUHU216HW,2013-03-06 19:40:00,
2013-03-06 14:45:00,39.9,29.0,30.51,NNE,23,0.0,0.0,65,0.00,,,0.00,WUHU216HW,2013-03-06 19:45:00,
2013-03-06 14:50:00,39.9,29.0,30.51,ENE,68,0.0,0.0,65,0.00,,,0.00,WUHU216HW,2013-03-06 19:50:00,
2013-03-06 14:55:00,39.9,29.0,30.51,ENE,68,0.0,0.0,65,0.00,,,0.00,WUHU216HW,2013-03-06 19:55:00,
2013-03-06 15:00:00,39.9,29.4,30.51,ENE,68,0.0,0.0,66,0.00,,,0.00,WUHU216HW,2013-03-06 20:00:00,
2013-03-06 15:05:00,40.4,29.5,30.51,NNE,23,0.0,0.0,65,0.00,,,0.00,WUHU216HW,2013-03-06 20:05:00,
2013-03-06 15:10:00,40.2,29.0,30.51,NE,45,0.0,0.0,64,0.00,,,0.00,WUHU216HW,2013-03-06 20:10:00,
2013-03-06 15:15:00,40.2,29.0,30.52,NNE,23,0.0,0.0,64,0.00,,,0.00,WUHU216HW,2013-03-06 20:15:00,
2013-03-06 15:20:00,40.2,29.0,30.51,NNE,23,0.0,0.0,64,0.00,,,0.00,WUHU216HW,2013-03-06 20:20:00,
2013-03-06 15:25:00,40.4,29.5,30.51,NE,45,0.0,0.0,65,0.00,,,0.00,WUHU216HW,2013-03-06 20:25:00,
2013-03-06 15:30:00,40.4,29.1,30.52,NNE,23,1.1,1.1,64,0.00,,,0.00,WUHU216HW,2013-03-06 20:30:00,
2013-03-06 15:35:00,39.9,28.6,30.52,NNE,23,0.0,1.1,64,0.00,,,0.00,WUHU216HW,2013-03-06 20:35:00,
2013-03-06 15:40:00,39.9,28.6,30.52,NNE,23,1.3,1.3,64,0.00,,,0.00,WUHU216HW,2013-03-06 20:40:00,
2013-03-06 15:45:00,39.9,28.6,30.52,NNE,23,0.0,1.3,64,0.00,,,0.00,WUHU216HW,2013-03-06 20:45:00,
2013-03-06 15:50:00,39.9,29.0,30.52,NNE,23,0.0,1.3,65,0.00,,,0.00,WUHU216HW,2013-03-06 20:50:00,
2013-03-06 15:55:00,39.9,28.6,30.53,NNE,23,0.0,0.0,64,0.00,,,0.00,WUHU216HW,2013-03-06 20:55:00,
2013-03-06 16:00:00,39.9,29.0,30.53,NE,45,0.0,0.0,65,0.00,,,0.00,WUHU216HW,2013-03-06 21:00:00,
2013-03-06 16:05:00,39.9,28.6,30.52,NE,45,0.0,0.0,64,0.00,,,0.00,WUHU216HW,2013-03-06 21:05:00,
2013-03-06 16:10:00,39.9,28.6,30.53,NNE,23,0.0,0.0,64,0.00,,,0.00,WUHU216HW,2013-03-06 21:10:00,
2013-03-06 16:15:00,39.9,28.6,30.53,NNE,23,0.0,0.0,64,0.00,,,0.00,WUHU216HW,2013-03-06 21:15:00,
2013-03-06 16:20:00,39.7,28.8,30.53,NNE,23,0.0,0.0,65,0.00,,,0.00,WUHU216HW,2013-03-06 21:20:00,
2013-03-06 16:25:00,39.5,28.6,30.53,NNE,23,0.0,0.0,65,0.00,,,0.00,WUHU216HW,2013-03-06 21:25:00,
2013-03-06 16:30:00,39.5,28.6,30.53,NNE,23,0.0,0.0,65,0.00,,,0.00,WUHU216HW,2013-03-06 21:30:00,
2013-03-06 16:35:00,39.3,28.4,30.53,NNE,23,0.0,0.0,65,0.00,,,0.00,WUHU216HW,2013-03-06 21:35:00,
2013-03-06 16:40:00,39.3,28.4,30.53,NNE,23,0.0,0.0,65,0.00,,,0.00,WUHU216HW,2013-03-06 21:40:00,
2013-03-06 16:45:00,39.3,28.8,30.53,NNE,23,0.0,0.0,66,0.00,,,0.00,WUHU216HW,2013-03-06 21:45:00,
2013-03-06 16:50:00,39.3,28.8,30.53,NNE,23,0.0,0.0,66,0.00,,,0.00,WUHU216HW,2013-03-06 21:50:00,
2013-03-06 16:55:00,39.3,28.8,30.53,NNE,23,0.0,0.0,66,0.00,,,0.00,WUHU216HW,2013-03-06 21:55:00,
2013-03-06 17:00:00,39.0,28.9,30.53,NNE,23,0.0,0.0,67,0.00,,,0.00,WUHU216HW,2013-03-06 22:00:00,
2013-03-06 17:05:00,38.8,28.3,30.54,NNE,23,0.0,0.0,66,0.00,,,0.00,WUHU216HW,2013-03-06 22:05:00,
2013-03-06 17:10:00,38.8,28.7,30.54,NNE,23,0.0,0.0,67,0.00,,,0.00,WUHU216HW,2013-03-06 22:10:00,
2013-03-06 17:15:00,38.8,28.7,30.54,NNE,23,0.0,0.0,67,0.00,,,0.00,WUHU216HW,2013-03-06 22:15:00,
2013-03-06 17:20:00,38.4,28.4,30.54,NNE,23,0.0,0.0,67,0.00,,,0.00,WUHU216HW,2013-03-06 22:20:00,
2013-03-06 17:25:00,38.3,28.2,30.54,NNE,23,0.0,0.0,67,0.00,,,0.00,WUHU216HW,2013-03-06 22:25:00,
2013-03-06 17:30:00,38.1,28.4,30.54,NNE,23,0.0,0.0,68,0.00,,,0.00,WUHU216HW,2013-03-06 22:30:00,
2013-03-06 17:35:00,37.9,28.3,30.55,NNE,23,0.0,0.0,68,0.00,,,0.00,WUHU216HW,2013-03-06 22:35:00,
2013-03-06 17:40:00,37.7,28.1,30.54,NNE,23,0.0,0.0,68,0.00,,,0.00,WUHU216HW,2013-03-06 22:40:00,
2013-03-06 17:45:00,37.5,28.3,30.55,NNE,23,0.0,0.0,69,0.00,,,0.00,WUHU216HW,2013-03-06 22:45:00,
2013-03-06 17:50:00,37.2,28.0,30.55,NE,45,0.0,0.0,69,0.00,,,0.00,WUHU216HW,2013-03-06 22:50:00,
2013-03-06 17:55:00,37.0,28.2,30.55,NE,45,0.0,0.0,70,0.00,,,0.00,WUHU216HW,2013-03-06 22:55:00,
2013-03-06 18:00:00,36.6,27.8,30.55,NE,45,0.0,0.0,70,0.00,,,0.00,WUHU216HW,2013-03-06 23:00:00,
2013-03-06 18:05:00,36.3,27.5,30.56,NE,45,0.0,0.0,70,0.00,,,0.00,WUHU216HW,2013-03-06 23:05:00,
2013-03-06 18:10:00,36.1,27.6,30.56,NE,45,0.0,0.0,71,0.00,,,0.00,WUHU216HW,2013-03-06 23:10:00,
2013-03-06 18:15:00,35.9,27.4,30.56,NE,45,0.0,0.0,71,0.00,,,0.00,WUHU216HW,2013-03-06 23:15:00,
2013-03-06 18:20:00,35.7,27.2,30.56,NE,45,0.0,0.0,71,0.00,,,0.00,WUHU216HW,2013-03-06 23:20:00,
2013-03-06 18:25:00,35.4,27.2,30.56,NE,45,0.0,0.0,72,0.00,,,0.00,WUHU216HW,2013-03-06 23:25:00,
2013-03-06 18:30:00,35.2,27.0,30.56,NE,45,0.0,0.0,72,0.00,,,0.00,WUHU216HW,2013-03-06 23:30:00,
2013-03-06 18:35:00,35.0,26.8,30.56,NE,45,0.0,0.0,72,0.00,,,0.00,WUHU216HW,2013-03-06 23:35:00,
2013-03-06 18:40:00,34.8,27.0,30.56,ENE,68,0.0,0.0,73,0.00,,,0.00,WUHU216HW,2013-03-06 23:40:00,
2013-03-06 18:45:00,34.7,26.8,30.56,ENE,68,0.0,0.0,73,0.00,,,0.00,WUHU216HW,2013-03-06 23:45:00,
2013-03-06 18:50:00,34.3,26.4,30.56,ENE,68,0.0,0.0,73,0.00,,,0.00,WUHU216HW,2013-03-06 23:50:00,
2013-03-06 18:55:00,34.3,26.4,30.56,ENE,68,0.0,0.0,73,0.00,,,0.00,WUHU216HW,2013-03-06 23:55:00,
2013-03-06 19:00:00,34.3,26.4,30.57,ENE,68,0.0,0.0,73,0.00,,,0.00,WUHU216HW,2013-03-07 00:00:00,
2013-03-06 19:05:00,34.1,26.6,30.57,ENE,68,0.0,0.0,74,0.00,,,0.00,WUHU216HW,2013-03-07 00:05:00,
2013-03-06 19:10:00,33.9,26.4,30.57,ENE,68,0.0,0.0,74,0.00,,,0.00,WUHU216HW,2013-03-07 00:10:00,
2013-03-06 19:15:00,33.8,26.2,30.57,ENE,68,0.0,0.0,74,0.00,,,0.00,WUHU216HW,2013-03-07 00:15:00,
2013-03-06 19:20:00,33.6,26.1,30.57,ENE,68,0.0,0.0,74,0.00,,,0.00,WUHU216HW,2013-03-07 00:20:00,
2013-03-06 19:25:00,33.6,26.4,30.57,ENE,68,0.0,0.0,75,0.00,,,0.00,WUHU216HW,2013-03-07 00:25:00,
2013-03-06 19:30:00,33.6,26.4,30.56,ENE,68,0.0,0.0,75,0.00,,,0.00,WUHU216HW,2013-03-07 00:30:00,
2013-03-06 19:35:00,33.4,26.2,30.57,ENE,68,0.0,0.0,75,0.00,,,0.00,WUHU216HW,2013-03-07 00:35:00,
2013-03-06 19:40:00,33.4,26.2,30.57,ENE,68,0.0,0.0,75,0.00,,,0.00,WUHU216HW,2013-03-07 00:40:00,
2013-03-06 19:45:00,33.4,26.2,30.57,ENE,68,0.0,0.0,75,0.00,,,0.00,WUHU216HW,2013-03-07 00:45:00,
2013-03-06 19:50:00,33.2,26.1,30.57,ENE,68,0.0,0.0,75,0.00,,,0.00,WUHU216HW,2013-03-07 00:50:00,
2013-03-06 19:55:00,33.2,26.1,30.57,ENE,68,0.0,0.0,75,0.00,,,0.00,WUHU216HW,2013-03-07 00:55:00,
2013-03-06 20:00:00,33.0,25.9,30.57,ENE,68,0.0,0.0,75,0.00,,,0.00,WUHU216HW,2013-03-07 01:00:00,
2013-03-06 20:05:00,32.9,26.1,30.57,ENE,68,0.0,0.0,76,0.00,,,0.00,WUHU216HW,2013-03-07 01:05:00,
2013-03-06 20:10:00,32.9,26.1,30.57,ENE,68,0.0,0.0,76,0.00,,,0.00,WUHU216HW,2013-03-07 01:10:00,
2013-03-06 20:15:00,32.9,26.1,30.58,ENE,68,0.0,0.0,76,0.00,,,0.00,WUHU216HW,2013-03-07 01:15:00,
2013-03-06 20:20:00,32.7,25.9,30.58,ENE,68,0.0,0.0,76,0.00,,,0.00,WUHU216HW,2013-03-07 01:20:00,
2013-03-06 20:25:00,32.7,25.9,30.57,ENE,68,0.0,0.0,76,0.00,,,0.00,WUHU216HW,2013-03-07 01:25:00,
2013-03-06 20:30:00,32.5,25.7,30.57,ENE,68,0.0,0.0,76,0.00,,,0.00,WUHU216HW,2013-03-07 01:30:00,
2013-03-06 20:36:00,32.5,25.7,30.57,ENE,68,0.0,0.0,76,0.00,,,0.00,WUHU216HW,2013-03-07 01:36:00,
2013-03-06 20:40:00,32.3,25.6,30.57,ENE,68,0.0,0.0,76,0.00,,,0.00,WUHU216HW,2013-03-07 01:40:00,
2013-03-06 20:45:00,32.1,25.4,30.57,ENE,68,0.0,0.0,76,0.00,,,0.00,WUHU216HW,2013-03-07 01:45:00,
2013-03-06 20:50:00,32.1,25.4,30.57,ENE,68,0.0,0.0,76,0.00,,,0.00,WUHU216HW,2013-03-07 01:50:00,
2013-03-06 20:55:00,32.0,25.3,30.58,ENE,68,0.0,0.0,76,0.00,,,0.00,WUHU216HW,2013-03-07 01:55:00,
2013-03-06 21:01:00,31.8,25.4,30.58,ENE,68,0.0,0.0,77,0.00,,,0.00,WUHU216HW,2013-03-07 02:01:00,
2013-03-06 21:06:00,31.8,25.4,30.58,ENE,68,0.0,0.0,77,0.00,,,0.00,WUHU216HW,2013-03-07 02:06:00,
2013-03-06 21:11:00,31.8,25.4,30.58,ENE,68,0.0,0.0,77,0.00,,,0.00,WUHU216HW,2013-03-07 02:11:00,
2013-03-06 21:16:00,31.8,25.4,30.58,ENE,68,0.0,0.0,77,0.00,,,0.00,WUHU216HW,2013-03-07 02:16:00,
2013-03-06 21:21:00,31.6,25.2,30.58,ENE,68,0.0,0.0,77,0.00,,,0.00,WUHU216HW,2013-03-07 02:21:00,
2013-03-06 21:25:00,31.6,25.2,30.58,ENE,68,0.0,0.0,77,0.00,,,0.00,WUHU216HW,2013-03-07 02:25:00,
2013-03-06 21:30:00,31.6,25.2,30.58,ENE,68,0.0,0.0,77,0.00,,,0.00,WUHU216HW,2013-03-07 02:30:00,
2013-03-06 21:35:00,31.6,25.2,30.58,ENE,68,0.0,0.0,77,0.00,,,0.00,WUHU216HW,2013-03-07 02:35:00,
2013-03-06 21:40:00,31.6,25.2,30.58,ENE,68,0.0,0.0,77,0.00,,,0.00,WUHU216HW,2013-03-07 02:40:00,
2013-03-06 21:45:00,31.4,25.4,30.58,ENE,68,0.0,0.0,78,0.00,,,0.00,WUHU216HW,2013-03-07 02:45:00,
2013-03-06 21:50:00,31.4,25.4,30.58,ENE,68,0.0,0.0,78,0.00,,,0.00,WUHU216HW,2013-03-07 02:50:00,
2013-03-06 21:55:00,31.2,25.2,30.58,ENE,68,0.0,0.0,78,0.00,,,0.00,WUHU216HW,2013-03-07 02:55:00,
2013-03-06 22:00:00,31.2,25.2,30.59,ENE,68,0.0,0.0,78,0.00,,,0.00,WUHU216HW,2013-03-07 03:00:00,
2013-03-06 22:05:00,31.2,25.2,30.58,ENE,68,0.0,0.0,78,0.00,,,0.00,WUHU216HW,2013-03-07 03:05:00,
2013-03-06 22:10:00,31.2,25.2,30.58,ENE,68,0.0,0.0,78,0.00,,,0.00,WUHU216HW,2013-03-07 03:10:00,
2013-03-06 22:15:00,31.2,25.2,30.58,ENE,68,0.0,0.0,78,0.00,,,0.00,WUHU216HW,2013-03-07 03:15:00,
2013-03-06 22:20:00,31.2,25.5,30.58,ENE,68,0.0,0.0,79,0.00,,,0.00,WUHU216HW,2013-03-07 03:20:00,
2013-03-06 22:25:00,31.4,25.7,30.59,ENE,68,0.0,0.0,79,0.00,,,0.00,WUHU216HW,2013-03-07 03:25:00,
2013-03-06 22:30:00,31.4,25.7,30.59,ENE,68,0.0,0.0,79,0.00,,,0.00,WUHU216HW,2013-03-07 03:30:00,
2013-03-06 22:35:00,31.2,25.5,30.59,ENE,68,0.0,0.0,79,0.00,,,0.00,WUHU216HW,2013-03-07 03:35:00,
2013-03-06 22:40:00,31.2,25.5,30.59,ENE,68,0.0,0.0,79,0.00,,,0.00,WUHU216HW,2013-03-07 03:40:00,
2013-03-06 22:45:00,31.2,25.5,30.59,ENE,68,0.0,0.0,79,0.00,,,0.00,WUHU216HW,2013-03-07 03:45:00,
2013-03-06 22:50:00,31.4,26.0,30.59,ENE,68,0.0,0.0,80,0.00,,,0.00,WUHU216HW,2013-03-07 03:50:00,
2013-03-06 22:55:00,31.6,26.2,30.59,ENE,68,0.0,0.0,80,0.00,,,0.00,WUHU216HW,2013-03-07 03:55:00,
2013-03-06 23:00:00,31.6,26.2,30.59,ENE,68,0.0,0.0,80,0.00,,,0.00,WUHU216HW,2013-03-07 04:00:00,
2013-03-06 23:05:00,31.6,26.2,30.59,ENE,68,0.0,0.0,80,0.00,,,0.00,WUHU216HW,2013-03-07 04:05:00,
2013-03-06 23:10:00,31.6,26.2,30.59,ENE,68,0.0,0.0,80,0.00,,,0.00,WUHU216HW,2013-03-07 04:10:00,
2013-03-06 23:15:00,31.6,26.2,30.59,ENE,68,0.0,0.0,80,0.00,,,0.00,WUHU216HW,2013-03-07 04:15:00,
2013-03-06 23:20:00,31.6,26.2,30.59,ENE,68,0.0,0.0,80,0.00,,,0.00,WUHU216HW,2013-03-07 04:20:00,
2013-03-06 23:25:00,31.6,26.2,30.59,ENE,68,0.0,0.0,80,0.00,,,0.00,WUHU216HW,2013-03-07 04:25:00,
2013-03-06 23:30:00,31.6,26.2,30.59,ENE,68,0.0,0.0,80,0.00,,,0.00,WUHU216HW,2013-03-07 04:30:00,
2013-03-06 23:35:00,31.6,26.2,30.59,ENE,68,0.0,0.0,80,0.00,,,0.00,WUHU216HW,2013-03-07 04:35:00,
2013-03-06 23:40:00,31.6,26.2,30.59,ENE,68,0.0,0.0,80,0.00,,,0.00,WUHU216HW,2013-03-07 04:40:00,
2013-03-06 23:45:00,31.6,26.2,30.58,ENE,68,0.0,0.0,80,0.00,,,0.00,WUHU216HW,2013-03-07 04:45:00,
2013-03-06 23:50:00,31.6,26.2,30.58,ENE,68,0.0,0.0,80,0.00,,,0.00,WUHU216HW,2013-03-07 04:50:00,
2013-03-06 23:55:00,31.6,26.2,30.58,ENE,68,0.0,0.0,80,0.00,,,0.00,WUHU216HW,2013-03-07 04:55:00,